Location: Walnut Point State Park
(39.6958°N, 88.0345°W)
Time: 11:19:33
(UTC-06:00)

Amateur Radio Satellites - All Passes

Search period start: 20 December 2014 10:49
Search period end: 21 December 2014 10:49
Location: Walnut Point State Park, 39.6958°N, 88.0345°W

Satellite Date Start Highest point End Downlink Frequencies (MHz)
Time Altitude Azimuth
UNISAT 6 20 Dec 10:51:10 10:54:11 18° 267° (W) 10:57:16 437.425
Oscar 11 20 Dec 10:53:06 10:55:45 16° 295° (WNW) 10:58:23 145.826/435.025
DUCHIFAT 1 20 Dec 10:55:11 10:58:33 23° 265° (W) 11:01:55 145.980
BUGSAT 1 20 Dec 10:55:48 10:59:17 27° 263° (W) 11:02:46 437.445
DOVE 4 20 Dec 10:58:16 10:59:13 11° 298° (WNW) 11:00:10 437.250
UKube-1 20 Dec 11:01:05 11:04:01 18° 295° (WNW) 11:06:56 .
QB50P2 20 Dec 11:09:18 11:11:58 16° 267° (W) 11:14:39 145.880/145.840
CUBEBUG 2 20 Dec 11:10:00 11:13:07 18° 294° (WNW) 11:16:16 437.445
POLYITAN 1 20 Dec 11:18:49 11:20:46 13° 269° (W) 11:22:44 437.675
NANOSAT C BR1 20 Dec 11:21:37 11:23:20 12° 269° (W) 11:25:03 145.865
VELOX 1 20 Dec 11:22:07 11:25:58 30° 291° (WNW) 11:29:48 145.980
ZACube-1 20 Dec 11:22:14 11:25:13 18° 294° (WNW) 11:28:14 437.345
ESTCUBE 1 20 Dec 11:22:50 11:27:20 73° 285° (WNW) 11:31:48 437.505/2401.250
TISAT 1 20 Dec 11:42:56 11:46:57 42° 99° (E) 11:50:57 437.305
SPROUT 20 Dec 11:45:06 11:49:12 42° 99° (E) 11:53:16 437.525
RS-15 20 Dec 11:49:26 12:00:24 86° 119° (ESE) 12:11:24 29.354- 29.394
YUBILEINY 20 Dec 11:50:33 11:58:43 48° 271° (W) 12:06:54 435.215
O/OREOS (USA 219) 20 Dec 11:56:02 11:57:24 11° 262° (W) 11:58:46 437.305
50 SAT 20 Dec 12:07:16 12:08:13 11° 297° (WNW) 12:09:10 437.505
AISAT 20 Dec 12:07:21 12:08:35 11° 298° (WNW) 12:09:49 437.250
BEESAT 2 20 Dec 12:08:14 12:10:54 17° 110° (ESE) 12:13:35 435.950
CUBEBUG 1 20 Dec 12:12:36 12:15:57 22° 292° (WNW) 12:19:18 437.445
SWISSCUBE 20 Dec 12:21:17 12:24:30 18° 93° (E) 12:27:41 437.505
ITUPSAT 1 20 Dec 12:21:50 12:24:48 16° 92° (E) 12:27:44 437.325
Oscar 19 20 Dec 12:30:17 12:35:24 79° 75° (ENE) 12:40:35 437.125/150
PCSat 20 Dec 12:30:32 12:34:36 22° 106° (ESE) 12:38:41 145.827
Gurwin Techsat 1B 20 Dec 12:40:09 12:44:13 23° 65° (ENE) 12:48:18 435.225
BEESAT 20 Dec 12:45:36 12:49:46 29° 96° (E) 12:53:54 436.000
ITAMSAT 1 20 Dec 12:45:46 12:50:36 41° 70° (ENE) 12:55:26 435.822/435.867
ISS 20 Dec 12:51:40 12:54:42 34° 135° (SE) 12:57:43 145.825
AO-7 20 Dec 13:01:41 13:06:05 16° 48° (NE) 13:10:29 29.400- 29.500
BEESAT 3 20 Dec 13:04:58 13:09:02 82° 120° (ESE) 13:13:13 437.485
AIST 2 20 Dec 13:10:33 13:14:27 37° 115° (ESE) 13:18:24 435.215
TISAT 1 20 Dec 13:19:48 13:22:26 16° 294° (WNW) 13:25:04 437.305
SPROUT 20 Dec 13:22:11 13:24:57 17° 294° (WNW) 13:27:42 437.525
BEESAT 2 20 Dec 13:44:52 13:48:47 42° 306° (NW) 13:52:47 435.950
AUBIESAT-1 20 Dec 13:47:36 13:51:41 41° 102° (ESE) 13:55:25 437.475
STARS 20 Dec 13:50:46 13:53:55 19° 94° (E) 13:57:02 437.465
KKS-1 20 Dec 13:53:20 13:57:16 30° 97° (E) 14:01:12 437.445
SWISSCUBE 20 Dec 13:58:01 14:02:34 45° 289° (WNW) 14:07:04 437.505
ITUPSAT 1 20 Dec 13:58:20 14:02:57 50° 288° (WNW) 14:07:31 437.325
RS-15 20 Dec 14:04:48 14:14:10 32° 325° (NW) 14:23:42 29.354- 29.394
PCSat 20 Dec 14:12:23 14:17:37 49° 303° (WNW) 14:22:54 145.827
M-CUBED/EXP-1 PRIME 20 Dec 14:12:54 14:17:18 87° 289° (WNW) 14:21:17 437.505
Oscar 19 20 Dec 14:13:45 14:15:19 11° 271° (W) 14:16:53 437.125/150
Gurwin Techsat 1B 20 Dec 14:18:49 14:23:52 45° 261° (W) 14:28:57 435.225
HORYU 2 20 Dec 14:21:04 14:25:31 82° 75° (ENE) 14:30:02 437.375
BEESAT 20 Dec 14:23:29 14:27:31 28° 292° (WNW) 14:31:31 436.000
ITAMSAT 1 20 Dec 14:26:09 14:30:12 23° 266° (W) 14:34:16 435.822/435.867
ISS 20 Dec 14:28:22 14:31:17 29° 332° (NNW) 14:34:13 145.825
JAS-2 20 Dec 14:38:32 14:43:51 21° 62° (ENE) 14:48:50 435.910
BEESAT 3 20 Dec 14:45:58 14:47:47 13° 319° (NW) 14:49:37 437.485
AO-7 20 Dec 14:49:08 14:57:21 69° 68° (ENE) 15:05:39 29.400- 29.500
AIST 2 20 Dec 14:49:45 14:53:10 23° 312° (NW) 14:56:37 435.215
SRMSAT 20 Dec 15:12:18 15:12:50 10° 181° (S) 15:13:22 437.500
AUBIESAT-1 20 Dec 15:23:23 15:26:15 17° 301° (WNW) 15:28:58 437.475
STARS 20 Dec 15:26:24 15:30:30 38° 289° (WNW) 15:34:36 437.465
AIST 1 20 Dec 15:28:58 15:32:29 24° 89° (E) 15:36:00
KKS-1 20 Dec 15:30:10 15:33:46 24° 292° (WNW) 15:37:22 437.445
Cubesat XI-IV 20 Dec 15:43:49 15:45:06 11° 58° (ENE) 15:46:23 437.490
GONETS M04 20 Dec 15:48:42 15:56:57 43° 74° (ENE) 16:05:05
ISS 20 Dec 16:07:33 16:08:43 11° 352° (N) 16:09:53 145.825
CUTE-I 20 Dec 16:14:07 16:18:00 21° 64° (ENE) 16:21:54 437.470
JAS-2 20 Dec 16:20:31 16:28:14 78° 257° (WSW) 16:35:20 435.910
RS-15 20 Dec 16:24:41 16:31:37 18° 0° (N) 16:38:41 29.354- 29.394
MOZHAYETS 4 20 Dec 16:37:46 16:42:21 57° 100° (E) 16:46:52
AO-7 20 Dec 16:44:14 16:50:43 25° 266° (W) 16:57:15 29.400- 29.500
AIST 1 20 Dec 17:06:19 17:10:01 26° 285° (WNW) 17:13:43
Cubesat XI-IV 20 Dec 17:18:59 17:24:19 83° 75° (ENE) 17:29:40 437.490
PRISM 20 Dec 17:24:34 17:27:56 24° 96° (E) 17:31:15 437.425
ISS 20 Dec 17:44:55 17:46:27 13° 12° (NNE) 17:48:00 145.825
GONETS M04 20 Dec 17:45:43 17:53:38 40° 274° (W) 18:01:30
CUTE-I 20 Dec 17:52:33 17:57:42 49° 260° (W) 18:02:52 437.470
CUBESAT XI-V 20 Dec 18:00:56 18:05:01 31° 96° (E) 18:09:03 437.345
STRAND 1 20 Dec 18:09:59 18:14:32 32° 97° (E) 18:19:04 437.568
JAS-2 20 Dec 18:10:42 18:13:59 13° 272° (W) 18:17:10 435.910
MOZHAYETS 4 20 Dec 18:16:34 18:19:04 15° 296° (WNW) 18:21:32
HO-68 20 Dec 18:23:10 18:28:15 21° 57° (ENE) 18:33:19 435.675
DANDE 20 Dec 18:31:13 18:35:25 15° 64° (ENE) 18:39:52 436.750
MaSat-1 20 Dec 18:34:15 18:36:19 24° 249° (WSW) 18:38:29 437.345
RS-15 20 Dec 18:39:27 18:49:07 32° 35° (NE) 18:59:05 29.354- 29.394
PRISM 20 Dec 18:59:56 19:03:24 26° 291° (WNW) 19:06:51 437.425
CANX-2 20 Dec 19:03:28 19:06:37 21° 67° (ENE) 19:09:48 2200.000
Cubesat XI-IV 20 Dec 19:03:29 19:05:01 11° 271° (W) 19:06:33 437.490
CUSAT 1 20 Dec 19:20:35 19:27:44 38° 73° (ENE) 19:35:28 437.405
ISS 20 Dec 19:20:38 19:23:45 39° 32° (NNE) 19:26:50 145.825
COMPASS 1 20 Dec 19:24:56 19:28:16 23° 68° (ENE) 19:31:37 437.405
SEEDS 20 Dec 19:30:05 19:33:49 31° 70° (ENE) 19:37:35 437.485
BRITE-PL 20 Dec 19:31:59 19:35:54 40° 72° (ENE) 19:39:47 437.365/2234.400
CUTE 1.7 + AOD 2 20 Dec 19:33:19 19:37:17 39° 72° (ENE) 19:41:17 437.475
CUBESAT XI-V 20 Dec 19:38:34 19:42:18 25° 292° (WNW) 19:46:02 437.345
DELFI C3 20 Dec 19:42:44 19:44:39 13° 64° (ENE) 19:46:33 145.870
DX 1 20 Dec 19:49:03 19:51:42 16° 65° (ENE) 19:54:21 434.975-435.025
STRAND 1 20 Dec 19:49:17 19:53:36 29° 293° (WNW) 19:57:55 437.568
SO-50 20 Dec 19:53:13 19:56:48 24° 111° (ESE) 20:00:29 436.795
GOMX 1 20 Dec 19:58:05 20:02:09 56° 74° (ENE) 20:06:14 467.674
HO-68 20 Dec 20:08:00 20:15:11 77° 255° (WSW) 20:22:24 435.675
Oscar 11 20 Dec 20:10:00 20:13:51 32° 70° (ENE) 20:17:45 145.826/435.025
DANDE 20 Dec 20:12:07 20:19:52 72° 80° (E) 20:28:33 436.750
UKube-1 20 Dec 20:18:39 20:22:28 31° 70° (ENE) 20:26:19 .
DOVE 4 20 Dec 20:22:59 20:27:07 80° 76° (ENE) 20:31:19 437.250
AAUSAT CUBESAT 2 20 Dec 20:24:03 20:28:16 85° 258° (WSW) 20:32:31 437.432
BEESAT 2 20 Dec 20:29:14 20:30:50 12° 41° (NE) 20:32:24 435.950
CUBEBUG 2 20 Dec 20:30:34 20:34:18 33° 71° (ENE) 20:38:09 437.445
CANX-2 20 Dec 20:38:29 20:42:20 33° 263° (W) 20:46:14 2200.000
ZACube-1 20 Dec 20:40:48 20:44:29 31° 70° (ENE) 20:48:14 437.345
VELOX 1 20 Dec 20:43:33 20:46:48 20° 66° (ENE) 20:50:03 145.980
CINEMA 3 20 Dec 20:47:33 20:51:41 88° 77° (ENE) 20:55:58 145.822/145.860
RS-15 20 Dec 20:51:41 21:03:02 88° 240° (WSW) 21:14:54 29.354- 29.394
ISS 20 Dec 20:57:35 21:00:09 21° 228° (SW) 21:02:42 145.825
COMPASS 1 20 Dec 21:00:12 21:03:50 28° 264° (W) 21:07:32 437.405
CUSAT 1 20 Dec 21:03:26 21:10:54 50° 268° (W) 21:19:00 437.405
SEEDS 20 Dec 21:06:26 21:09:40 21° 266° (W) 21:12:55 437.485
FUNcube-1 20 Dec 21:07:00 21:11:06 62° 75° (ENE) 21:15:19 145.935
UWE-3 20 Dec 21:08:01 21:12:10 77° 76° (ENE) 21:16:27 435.000/436.395/437.385
CUTE 1.7 + AOD 2 20 Dec 21:10:36 21:13:22 17° 268° (W) 21:16:08 437.475
BRITE-PL 20 Dec 21:12:21 21:14:39 14° 268° (W) 21:16:56 437.365/2234.400
DELFI C3 20 Dec 21:15:27 21:19:27 51° 260° (W) 21:23:29 145.870
50 SAT 20 Dec 21:17:11 21:20:52 36° 72° (ENE) 21:24:35 437.505
PCSat 20 Dec 21:18:40 21:22:21 18° 45° (NE) 21:26:01 145.827
DX 1 20 Dec 21:23:24 21:27:33 45° 260° (W) 21:31:45 434.975-435.025
AISAT 20 Dec 21:25:31 21:29:51 59° 74° (ENE) 21:34:12 437.250
BEESAT 3 20 Dec 21:25:38 21:29:34 39° 53° (NE) 21:33:27 437.485
CUBEBUG 1 20 Dec 21:31:54 21:35:26 25° 68° (ENE) 21:38:59 437.445
SO-50 20 Dec 21:32:53 21:37:07 37° 309° (NW) 21:41:29 436.795
AIST 2 20 Dec 21:33:32 21:36:56 22° 47° (NE) 21:40:18 435.215
ANTELSAT 20 Dec 21:38:30 21:42:02 21° 94° (E) 21:45:33 437.575/2403.000
HUMSAT D 20 Dec 21:39:55 21:44:03 87° 79° (E) 21:48:15 437.325/437.525
GOMX 1 20 Dec 21:40:14 21:40:41 10° 270° (W) 21:41:09 467.674
QB50P1 20 Dec 21:45:17 21:47:25 14° 92° (E) 21:49:32 145.935-145.965
Oscar 11 20 Dec 21:46:48 21:50:04 21° 266° (W) 21:53:22 145.826/435.025
UKube-1 20 Dec 21:55:20 21:58:39 22° 265° (W) 22:02:00 .
DANDE 20 Dec 21:56:43 22:02:52 26° 274° (W) 22:09:30 436.750
HO-68 20 Dec 22:01:44 22:03:56 11° 272° (W) 22:06:08 435.675
BEESAT 2 20 Dec 22:05:30 22:09:42 90° 241° (WSW) 22:13:51 435.950
CUBEBUG 2 20 Dec 22:08:08 22:11:07 19° 267° (W) 22:14:09 437.445
POPSAT HIP 1 20 Dec 22:12:42 22:16:23 28° 96° (E) 22:20:03 437.405
TIGRISAT 20 Dec 22:13:09 22:17:41 46° 99° (E) 22:22:13 435.000
ZACube-1 20 Dec 22:17:47 22:20:54 20° 266° (W) 22:24:05 437.345
VELOX 1 20 Dec 22:19:04 22:23:08 36° 262° (W) 22:27:12 145.980
ESTCUBE 1 20 Dec 22:21:35 22:26:08 88° 257° (WSW) 22:30:42 437.505/2401.250
TISAT 1 20 Dec 22:35:07 22:38:45 29° 70° (ENE) 22:42:23 437.305
BUGSAT 1 20 Dec 22:38:32 22:42:24 42° 99° (E) 22:46:17 437.445
SPROUT 20 Dec 22:38:58 22:42:40 29° 70° (ENE) 22:46:23 437.525
DUCHIFAT 1 20 Dec 22:40:13 22:44:26 58° 101° (E) 22:48:37 145.980
UNISAT 6 20 Dec 22:42:18 22:47:02 84° 283° (WNW) 22:51:45 437.425
50 SAT 20 Dec 22:53:42 22:56:13 16° 267° (W) 22:58:45 437.505
YUBILEINY 20 Dec 22:53:48 23:01:49 43° 87° (E) 23:09:49 435.215
QB50P2 20 Dec 22:53:53 22:58:10 86° 103° (ESE) 23:02:28 145.880/145.840
PCSat 20 Dec 23:00:56 23:06:21 75° 244° (WSW) 23:11:44 145.827
POLYITAN 1 20 Dec 23:02:48 23:07:05 75° 284° (WNW) 23:11:23 437.675
BEESAT 3 20 Dec 23:04:32 23:07:28 19° 249° (WSW) 23:10:22 437.485
NANOSAT C BR1 20 Dec 23:04:52 23:09:07 72° 285° (WNW) 23:13:22 145.865
AISAT 20 Dec 23:05:12 23:06:50 12° 269° (W) 23:08:28 437.250
RS-15 20 Dec 23:06:11 23:13:53 21° 260° (W) 23:21:50 29.354- 29.394
CUBEBUG 1 20 Dec 23:07:55 23:11:41 28° 264° (W) 23:15:28 437.445
AIST 2 20 Dec 23:11:41 23:15:41 39° 245° (WSW) 23:19:36 435.215
ANTELSAT 20 Dec 23:14:32 23:18:55 39° 289° (WNW) 23:23:18 437.575/2403.000
QB50P1 20 Dec 23:19:26 23:23:33 48° 287° (WNW) 23:27:40 145.935-145.965
SWISSCUBE 20 Dec 23:27:28 23:30:55 20° 65° (ENE) 23:34:23 437.505
ITUPSAT 1 20 Dec 23:28:14 23:31:31 19° 64° (ENE) 23:34:49 437.325
M-CUBED/EXP-1 PRIME 20 Dec 23:28:29 23:31:00 14° 57° (ENE) 23:33:31 437.505
POPSAT HIP 1 20 Dec 23:48:44 23:52:09 24° 292° (WNW) 23:55:35 437.405
TIGRISAT 20 Dec 23:50:52 23:54:03 18° 295° (WNW) 23:57:16 435.000
BEESAT 20 Dec 23:51:31 23:55:44 32° 69° (ENE) 23:59:57 436.000
TISAT 1 21 Dec 00:11:17 00:14:34 22° 265° (W) 00:17:51 437.305
BUGSAT 1 21 Dec 00:15:15 00:17:33 15° 294° (WNW) 00:19:51 437.445
SPROUT 21 Dec 00:15:24 00:18:45 22° 265° (W) 00:22:07 437.525
DUCHIFAT 1 21 Dec 00:17:59 00:19:47 13° 296° (WNW) 00:21:36 145.980
O/OREOS (USA 219) 21 Dec 00:25:23 00:29:50 89° 111° (ESE) 00:34:19 437.305
AUBIESAT-1 21 Dec 00:34:48 00:39:30 54° 68° (ENE) 00:44:16 437.475
Oscar 19 21 Dec 00:43:09 00:47:41 30° 96° (E) 00:52:10 437.125/150
STARS 21 Dec 00:48:05 00:50:44 16° 65° (ENE) 00:53:23 437.465
YUBILEINY 21 Dec 00:50:30 00:58:34 41° 286° (WNW) 01:06:41 435.215
KKS-1 21 Dec 00:51:16 00:54:54 26° 68° (ENE) 00:58:32 437.445
M-CUBED/EXP-1 PRIME 21 Dec 01:00:31 01:05:20 77° 253° (WSW) 01:10:17 437.505
ITAMSAT 1 21 Dec 01:00:44 01:03:42 15° 91° (E) 01:06:39 435.822/435.867
SWISSCUBE 21 Dec 01:03:54 01:08:28 43° 261° (W) 01:13:02 437.505
ITUPSAT 1 21 Dec 01:04:25 01:09:02 47° 260° (W) 01:13:41 437.325
BEESAT 21 Dec 01:29:34 01:33:33 26° 264° (W) 01:37:34 436.000
VERMONT LUNAR 21 Dec 02:08:13 02:11:11 25° 152° (SSE) 02:14:09 437.305
AUBIESAT-1 21 Dec 02:11:33 02:14:41 17° 264° (W) 02:17:52 437.475
HORYU 2 21 Dec 02:14:40 02:17:39 17° 93° (E) 02:20:37 437.375
Oscar 19 21 Dec 02:22:23 02:26:58 32° 292° (WNW) 02:31:32 437.125/150
STARS 21 Dec 02:22:36 02:26:49 46° 260° (W) 02:31:03 437.465
PHONESAT 2.4 21 Dec 02:23:51 02:26:45 23° 150° (SSE) 02:29:39 2401.200-2431.200
KKS-1 21 Dec 02:27:37 02:31:25 28° 264° (W) 02:35:15 437.445
Gurwin Techsat 1B 21 Dec 02:35:31 02:40:51 79° 103° (ESE) 02:46:09 435.225
ITAMSAT 1 21 Dec 02:38:28 02:43:34 61° 287° (WNW) 02:48:39 435.822/435.867
AO-7 21 Dec 02:52:51 02:59:08 23° 93° (E) 03:05:22 29.400- 29.500
AIST 1 21 Dec 03:13:42 03:17:58 68° 81° (E) 03:22:11
JAS-2 21 Dec 03:35:25 03:36:55 11° 87° (E) 03:38:24 435.910
MOZHAYETS 4 21 Dec 03:38:53 03:43:21 49° 73° (ENE) 03:47:51
VERMONT LUNAR 21 Dec 03:45:42 03:49:15 82° 167° (SSE) 03:52:47 437.305
HORYU 2 21 Dec 03:50:13 03:54:30 43° 289° (WNW) 03:58:45 437.375
PHONESAT 2.4 21 Dec 04:01:31 04:05:08 76° 166° (SSE) 04:08:46 2401.200-2431.200
PRISM 21 Dec 04:15:16 04:18:06 18° 66° (ENE) 04:20:55 437.425
Gurwin Techsat 1B 21 Dec 04:17:34 04:20:07 14° 300° (WNW) 04:22:40 435.225
SO-50 21 Dec 04:24:53 04:28:42 22° 45° (NE) 04:32:31 436.795
AO-7 21 Dec 04:44:14 04:52:35 74° 291° (WNW) 05:00:53 29.400- 29.500
GONETS M04 21 Dec 04:48:18 04:56:42 51° 89° (E) 05:05:07
CUBESAT XI-V 21 Dec 05:03:50 05:07:49 28° 69° (ENE) 05:11:47 437.345
JAS-2 21 Dec 05:17:15 05:22:52 77° 286° (WNW) 05:28:04 435.910
MOZHAYETS 4 21 Dec 05:18:01 05:20:49 16° 268° (W) 05:23:39
VERMONT LUNAR 21 Dec 05:24:05 05:27:38 78° 4° (N) 05:31:10 437.305
STRAND 1 21 Dec 05:25:01 05:29:50 44° 70° (ENE) 05:34:39 437.568
Cubesat XI-IV 21 Dec 05:37:29 05:42:20 35° 97° (E) 05:47:09 437.490
PHONESAT 2.4 21 Dec 05:40:15 05:43:53 77° 3° (N) 05:47:31 2401.200-2431.200
PRISM 21 Dec 05:49:22 05:53:19 39° 261° (W) 05:57:18 437.425
SO-50 21 Dec 06:04:47 06:09:33 53° 243° (WSW) 06:14:19 436.795
CUTE-I 21 Dec 06:10:17 06:15:36 71° 102° (ESE) 06:20:54 437.470
AO-7 21 Dec 06:39:10 06:43:58 17° 311° (NW) 06:48:45 29.400- 29.500
CUBESAT XI-V 21 Dec 06:41:11 06:45:11 28° 264° (W) 06:49:10 437.345
GONETS M04 21 Dec 06:45:54 06:53:44 35° 289° (WNW) 07:01:38
VERMONT LUNAR 21 Dec 07:02:28 07:05:54 49° 201° (SSW) 07:09:19 437.305
STRAND 1 21 Dec 07:05:22 07:09:11 21° 266° (W) 07:13:01 437.568
Cubesat XI-IV 21 Dec 07:17:46 07:22:16 29° 293° (WNW) 07:26:46 437.490
PHONESAT 2.4 21 Dec 07:18:59 07:22:33 55° 199° (SSW) 07:26:07 2401.200-2431.200
BRITE-PL 21 Dec 07:37:28 07:40:25 16° 93° (E) 07:43:29 437.365/2234.400
HO-68 21 Dec 07:37:53 07:43:05 21° 93° (E) 07:48:15 435.675
MaSat-1 21 Dec 07:51:13 07:53:07 22° 111° (ESE) 07:54:58 437.345
CUTE-I 21 Dec 07:52:05 07:55:03 15° 299° (WNW) 07:58:01 437.470
GOMX 1 21 Dec 08:00:31 08:04:04 20° 94° (E) 08:07:47 467.674
AAUSAT CUBESAT 2 21 Dec 08:09:43 08:12:28 17° 93° (E) 08:15:10 437.432
DOVE 4 21 Dec 08:22:40 08:26:39 25° 95° (E) 08:30:47 437.250
CANX-2 21 Dec 08:24:32 08:28:40 43° 98° (E) 08:32:46 2200.000
CUSAT 1 21 Dec 08:33:04 08:36:01 23° 85° (E) 08:39:41 437.405
ANTELSAT 21 Dec 08:37:57 08:40:43 17° 64° (ENE) 08:43:31 437.575/2403.000
VERMONT LUNAR 21 Dec 08:42:17 08:43:42 12° 215° (SW) 08:45:06 437.305
CINEMA 3 21 Dec 08:43:24 08:47:17 24° 95° (E) 08:51:14 145.822/145.860
COMPASS 1 21 Dec 08:44:27 08:48:35 47° 99° (E) 08:52:40 437.405
SEEDS 21 Dec 08:50:49 08:55:07 69° 101° (E) 08:59:21 437.485
CUTE 1.7 + AOD 2 21 Dec 08:55:08 08:59:28 90° 102° (ESE) 09:03:46 437.475
DELFI C3 21 Dec 08:57:30 09:00:47 23° 95° (E) 09:04:03 145.870
FUNcube-1 21 Dec 08:57:57 09:00:19 14° 91° (E) 09:02:40 145.935
O/OREOS (USA 219) 21 Dec 08:58:09 09:00:53 16° 55° (NE) 09:03:36 437.305
PHONESAT 2.4 21 Dec 08:58:43 09:00:46 15° 214° (SW) 09:02:50 2401.200-2431.200
UWE-3 21 Dec 08:59:44 09:02:54 18° 93° (E) 09:06:05 435.000/436.395/437.385
YUBILEINY 21 Dec 09:05:36 09:11:30 20° 64° (ENE) 09:17:22 435.215
POPSAT HIP 1 21 Dec 09:05:47 09:08:50 20° 67° (ENE) 09:11:54 437.405
RS-15 21 Dec 09:10:54 09:14:25 12° 96° (E) 09:17:55 29.354- 29.394
TIGRISAT 21 Dec 09:11:35 09:15:33 35° 70° (ENE) 09:19:37 435.000
DX 1 21 Dec 09:12:49 09:16:41 30° 97° (E) 09:20:31 434.975-435.025
BRITE-PL 21 Dec 09:14:30 09:19:07 54° 286° (WNW) 09:24:05 437.365/2234.400
AISAT 21 Dec 09:19:38 09:21:23 12° 91° (E) 09:23:07 437.250
HO-68 21 Dec 09:24:13 09:31:19 68° 290° (WNW) 09:38:22 435.675
HUMSAT D 21 Dec 09:26:36 09:29:16 16° 92° (E) 09:31:57 437.325/437.525
DANDE 21 Dec 09:27:21 09:30:46 84° 98° (E) 09:35:25 436.750
BUGSAT 1 21 Dec 09:28:32 09:32:00 27° 70° (ENE) 09:35:27 437.445
DUCHIFAT 1 21 Dec 09:32:26 09:36:19 38° 72° (ENE) 09:40:14 145.980
Oscar 11 21 Dec 09:33:47 09:38:10 75° 102° (ESE) 09:42:30 145.826/435.025
GOMX 1 21 Dec 09:37:46 09:42:17 44° 287° (WNW) 09:47:07 467.674
UNISAT 6 21 Dec 09:40:40 09:45:01 78° 76° (ENE) 09:49:31 437.425
UKube-1 21 Dec 09:42:48 09:47:07 66° 102° (ESE) 09:51:25 .
AAUSAT CUBESAT 2 21 Dec 09:44:19 09:48:16 39° 288° (WNW) 09:52:11 437.432
QB50P2 21 Dec 09:46:14 09:50:22 57° 74° (ENE) 09:54:31 145.880/145.840
POLYITAN 1 21 Dec 09:55:16 09:59:28 74° 76° (ENE) 10:03:41 437.675
NANOSAT C BR1 21 Dec 09:56:51 10:01:02 76° 75° (ENE) 10:05:15 145.865
CUBEBUG 2 21 Dec 09:58:19 10:03:00 89° 103° (ESE) 10:07:45 437.445
DOVE 4 21 Dec 10:00:04 10:04:25 35° 289° (WNW) 10:08:58 437.250
CANX-2 21 Dec 10:01:32 10:04:14 17° 294° (WNW) 10:06:56 2200.000
ZACube-1 21 Dec 10:05:52 10:10:25 79° 102° (ESE) 10:15:01 437.345
VELOX 1 21 Dec 10:10:25 10:14:39 44° 99° (E) 10:18:52 145.980
QB50P1 21 Dec 10:11:24 10:15:35 73° 258° (WSW) 10:19:49 145.935-145.965
ANTELSAT 21 Dec 10:12:55 10:17:06 45° 261° (W) 10:21:25 437.575/2403.000
CUSAT 1 21 Dec 10:15:57 10:19:01 22° 294° (WNW) 10:22:49 437.405
ESTCUBE 1 21 Dec 10:16:15 10:19:36 21° 94° (E) 10:22:57 437.505/2401.250
CINEMA 3 21 Dec 10:20:10 10:24:29 35° 289° (WNW) 10:28:56 145.822/145.860
COMPASS 1 21 Dec 10:21:30 10:23:53 15° 295° (WNW) 10:26:15 437.405
SEEDS 21 Dec 10:29:16 10:30:20 11° 297° (WNW) 10:31:23 437.485
FUNcube-1 21 Dec 10:32:30 10:36:56 54° 286° (WNW) 10:41:24 145.935
DELFI C3 21 Dec 10:32:32 10:36:01 27° 290° (WNW) 10:39:27 145.870
50 SAT 21 Dec 10:32:59 10:37:09 73° 102° (ESE) 10:41:17 437.505
UWE-3 21 Dec 10:35:14 10:39:35 43° 288° (WNW) 10:44:00 435.000/436.395/437.385
O/OREOS (USA 219) 21 Dec 10:36:12 10:40:37 54° 252° (WSW) 10:45:02 437.305
POPSAT HIP 1 21 Dec 10:40:43 10:44:30 33° 263° (W) 10:48:20 437.405
